Location: *
(51.5000°N, 0.1100°W)
Time: 19:18:36
(UTC+00:00)

Cosmos 2333 Rocket - Pass Details

Date: 25 May 2024
Orbit: 838 x 863 km, 70.8° (Epoch: 23 June)

Event Time Altitude Azimuth Distance (km) Brightness Sun altitude
Rises 00:19:53 0° 330° (NNW) 3,422 6.3 -17.3°
Reaches altitude 10° 00:22:39 10° 341° (NNW) 2,488 5.7 -17.3°
Maximum altitude 00:27:38 30° 42° (NE) 1,500 4.1 -17.2°
Drops below altitude 10° 00:32:37 10° 102° (ESE) 2,492 4.6 -17.1°
Sets 00:35:23 0° 114° (ESE) 3,429 5.2 -17.0°
